Weather History for Morris, IL

Change the Weather History Date:

Wednesday, September 18, 2013

  Actual Average (KLOT) Record (KLOT)
Temperature  
Mean Temperature 72 °F 64 °F  
Max Temperature 84 °F 75 °F 88 °F (2007)
Min Temperature 59 °F 54 °F 43 °F (1995)
Degree Days  
Heating Degree Days 0 3  
Month to date heating degree days 29  
Since 1 July heating degree days 37  
Cooling Degree Days 6 2  
Month to date cooling degree days 73  
Year to date cooling degree days 826  
Growing Degree Days 22 (Base 50)    
Moisture  
Dew Point 62 °F    
Average Humidity 83    
Maximum Humidity 100    
Minimum Humidity 51    
Precipitation  
Precipitation 0.20 in 0.10 in 1.21 in (2001)
Month to date precipitation 1.97  
Year to date precipitation 29.79  
Sea Level Pressure  
Sea Level Pressure 30.02 in    
Wind  
Wind Speed 5 mph (SSE)    
Max Wind Speed 18 mph    
Max Gust Speed 37 mph    
Visibility 10 miles    
Events Rain , Thunderstorm    
T = Trace of Precipitation, MM = Missing Value Source: NWS Daily Summary

Daily Weather History Graph

Daily Weather History Graph

Search for Another Location

Airport:

Trip Planner

Search our weather history database for the weather conditions in past years. The results will help you decide how hot, cold, wet, or windy it might be!

Date:

Astronomy

Sep. 18, 2013 Rise Set
Actual Time 6:37 AM CDT 6:57 PM CDT
Civil Twilight 6:09 AM CDT 7:24 PM CDT
Nautical Twilight 5:37 AM CDT 7:57 PM CDT
Astronomical Twilight 5:03 AM CDT 8:30 PM CDT
Moon 6:20 PM CDT (9/18) 5:39 AM CDT (9/18)
Length of Visible Light 13h 15m
Length of Day
12h 20m
Waxing Gibbous, 99% of the Moon is Illuminated
Sep 18
Waxing Gibbous
Sep 19
Full
Sep 26
Last Quarter
Oct 4
New
Oct 11
First Quarter

Hourly Weather History & Observations

Time (CDT) Temp. Heat Index Dew Point Humidity Pressure Visibility Wind Dir Wind Speed Gust Speed Precip Events Conditions
12:15 AM 60.8 °F - 52.7 °F 75% 30.11 in 10.0 mi SE 6.9 mph - N/A   Overcast
12:35 AM 60.4 °F - 52.2 °F 74% 30.10 in 10.0 mi SE 5.8 mph - N/A   Scattered Clouds
12:55 AM 60.1 °F - 52.2 °F 75% 30.11 in 10.0 mi ESE 4.6 mph - N/A   Clear
1:15 AM 59.9 °F - 52.3 °F 76% 30.10 in 10.0 mi SE 4.6 mph - N/A   Clear
1:35 AM 59.9 °F - 52.7 °F 77% 30.10 in 10.0 mi SE 3.5 mph - N/A   Clear
1:55 AM 60.3 °F - 52.7 °F 76% 30.10 in 10.0 mi SSE 3.5 mph - N/A   Clear
2:15 AM 60.3 °F - 52.5 °F 76% 30.10 in 10.0 mi Calm Calm - N/A   Clear
2:35 AM 60.6 °F - 52.7 °F 75% 30.10 in 10.0 mi Calm Calm - N/A   Clear
2:55 AM 61.0 °F - 52.7 °F 74% 30.09 in 10.0 mi Calm Calm - N/A   Clear
3:15 AM 61.0 °F - 52.7 °F 74% 30.09 in 10.0 mi Calm Calm - N/A   Clear
3:35 AM 60.3 °F - 53.2 °F 78% 30.09 in 10.0 mi Calm Calm - N/A   Clear
3:55 AM 60.3 °F - 53.8 °F 79% 30.09 in 10.0 mi Calm Calm - N/A   Scattered Clouds
4:15 AM 60.1 °F - 54.1 °F 81% 30.08 in 10.0 mi SSE 3.5 mph - N/A   Scattered Clouds
4:35 AM 59.9 °F - 54.5 °F 82% 30.08 in 10.0 mi SSE 3.5 mph - N/A   Scattered Clouds
4:55 AM 60.3 °F - 54.7 °F 82% 30.08 in 10.0 mi Calm Calm - N/A   Mostly Cloudy
5:15 AM 60.3 °F - 55.2 °F 83% 30.08 in 10.0 mi Calm Calm - N/A   Mostly Cloudy
5:35 AM 60.3 °F - 55.6 °F 85% 30.08 in 10.0 mi Calm Calm - N/A Rain Light Rain
5:55 AM 60.1 °F - 58.3 °F 94% 30.08 in 10.0 mi SE 3.5 mph - N/A Rain Light Rain
6:15 AM 60.3 °F - 59.9 °F 99% 30.08 in 10.0 mi SE 4.6 mph - N/A   Overcast
6:35 AM 60.3 °F - 60.3 °F 100% 30.08 in 10.0 mi SSE 4.6 mph - N/A   Overcast
6:55 AM 60.4 °F - 60.4 °F 100% 30.09 in 10.0 mi SE 3.5 mph - N/A   Overcast
7:15 AM 60.8 °F - 60.8 °F 100% 30.08 in 10.0 mi SE 4.6 mph - N/A   Overcast
7:35 AM 61.5 °F - 60.4 °F 96% 30.08 in 10.0 mi SSE 4.6 mph - N/A   Mostly Cloudy
7:55 AM 62.1 °F - 60.1 °F 93% 30.08 in 10.0 mi SSE 4.6 mph - N/A   Mostly Cloudy
8:15 AM 63.0 °F - 59.0 °F 87% 30.08 in 10.0 mi SE 5.8 mph - N/A   Mostly Cloudy
8:35 AM 63.7 °F - 57.4 °F 80% 30.08 in 10.0 mi SSE 6.9 mph - N/A   Mostly Cloudy
8:55 AM 64.4 °F - 57.4 °F 78% 30.07 in 10.0 mi SSE 4.6 mph - N/A   Mostly Cloudy
9:15 AM 65.5 °F - 58.1 °F 77% 30.07 in 10.0 mi SSE 5.8 mph - N/A   Scattered Clouds
9:35 AM 66.0 °F - 58.1 °F 76% 30.07 in 10.0 mi SSE 8.1 mph - N/A   Clear
9:55 AM 69.3 °F - 59.4 °F 71% 30.07 in 10.0 mi South 10.4 mph - N/A   Clear
10:15 AM 71.8 °F - 60.6 °F 68% 30.06 in 10.0 mi South 9.2 mph - N/A   Scattered Clouds
10:35 AM 72.9 °F - 61.5 °F 67% 30.06 in 10.0 mi South 9.2 mph - N/A   Scattered Clouds
10:55 AM 75.2 °F - 62.4 °F 64% 30.05 in 10.0 mi South 8.1 mph - N/A   Scattered Clouds
11:15 AM 77.4 °F - 62.8 °F 61% 30.05 in 10.0 mi South 11.5 mph - N/A   Scattered Clouds
11:35 AM 78.3 °F - 64.2 °F 62% 30.05 in 10.0 mi SSW 10.4 mph 16.1 mph N/A   Mostly Cloudy
11:55 AM 79.2 °F - 64.2 °F 60% 30.04 in 10.0 mi South 9.2 mph - N/A   Scattered Clouds
12:15 PM 79.9 °F - 64.0 °F 58% 30.03 in 10.0 mi SSW 10.4 mph 17.3 mph N/A   Clear
12:35 PM 80.6 °F 82.3 °F 64.6 °F 58% 30.02 in 10.0 mi South 12.7 mph - N/A   Clear
12:55 PM 81.5 °F 83.1 °F 64.4 °F 56% 30.01 in 10.0 mi SSW 11.5 mph - N/A   Clear
1:15 PM 82.0 °F 83.8 °F 64.9 °F 56% 30.01 in 10.0 mi South 8.1 mph - N/A   Clear
1:35 PM 81.7 °F 83.5 °F 65.1 °F 57% 30.00 in 10.0 mi South 11.5 mph 16.1 mph N/A Thunderstorm Scattered Clouds
1:55 PM 83.3 °F 85.3 °F 65.7 °F 55% 29.99 in 10.0 mi South 12.7 mph 18.4 mph N/A Thunderstorm Scattered Clouds
2:15 PM 83.1 °F 84.8 °F 65.1 °F 54% 29.98 in 10.0 mi SSW 9.2 mph - N/A Thunderstorm Thunderstorm
2:35 PM 84.6 °F 86.1 °F 64.6 °F 51% 29.97 in 10.0 mi SSW 11.5 mph 17.3 mph N/A   Scattered Clouds
2:55 PM 82.6 °F 84.1 °F 64.6 °F 54% 29.96 in 10.0 mi South 11.5 mph 16.1 mph N/A   Clear
3:15 PM 81.1 °F 82.8 °F 64.4 °F 57% 29.99 in 10.0 mi West 9.2 mph - N/A Thunderstorm Scattered Clouds
3:35 PM 67.6 °F - 63.0 °F 85% 29.98 in 5.0 mi NW 18.4 mph 36.8 mph 0.02 in Rain , Thunderstorm Thunderstorms and Rain
3:55 PM 69.4 °F - 69.3 °F 99% 30.00 in - West 13.8 mph - 0.12 in Thunderstorm Thunderstorm
4:15 PM 69.1 °F - 69.1 °F 100% 29.98 in 3.0 mi Calm Calm - 0.07 in Rain , Thunderstorm Thunderstorms and Rain
4:35 PM 68.9 °F - 68.9 °F 100% 29.96 in 10.0 mi Calm Calm - 0.08 in Rain , Thunderstorm Light Thunderstorms and Rain
4:55 PM 68.4 °F - 68.4 °F 100% 29.95 in 10.0 mi ESE 8.1 mph - 0.08 in Thunderstorm Thunderstorm
5:15 PM 68.5 °F - 68.5 °F 100% 29.95 in 10.0 mi SE 4.6 mph - N/A Thunderstorm Clear
5:35 PM 69.1 °F - 69.1 °F 100% 29.94 in 10.0 mi SE 5.8 mph - N/A Thunderstorm Clear
5:55 PM 69.8 °F - 69.8 °F 100% 29.94 in 10.0 mi ESE 6.9 mph - N/A   Clear
6:15 PM 70.5 °F - 70.5 °F 100% 29.93 in 10.0 mi ESE 8.1 mph - N/A   Clear
6:35 PM 70.3 °F - 70.3 °F 100% 29.94 in 10.0 mi SE 5.8 mph - N/A Thunderstorm Clear
6:55 PM 69.8 °F - 69.8 °F 100% 29.94 in 7.0 mi SE 4.6 mph - N/A   Scattered Clouds
7:15 PM 69.4 °F - 69.4 °F 100% 29.94 in 10.0 mi SE 5.8 mph - N/A   Mostly Cloudy
7:35 PM 69.3 °F - 69.3 °F 100% 29.94 in 10.0 mi ESE 3.5 mph - N/A   Mostly Cloudy
7:55 PM 69.1 °F - 69.1 °F 100% 29.95 in 10.0 mi ESE 3.5 mph - N/A   Mostly Cloudy
8:15 PM 68.9 °F - 68.9 °F 100% 29.95 in 10.0 mi SE 3.5 mph - N/A   Mostly Cloudy
8:35 PM 68.7 °F - 68.7 °F 100% 29.96 in 10.0 mi East 4.6 mph - N/A   Scattered Clouds
8:55 PM 68.5 °F - 68.5 °F 100% 29.96 in 10.0 mi East 5.8 mph - N/A   Scattered Clouds
9:15 PM 68.9 °F - 68.9 °F 100% 29.96 in 10.0 mi ESE 6.9 mph - N/A   Scattered Clouds
9:35 PM 69.3 °F - 69.3 °F 100% 29.96 in 7.0 mi ESE 6.9 mph - N/A   Scattered Clouds
9:55 PM 69.4 °F - 69.4 °F 100% 29.96 in 7.0 mi ESE 5.8 mph - N/A   Scattered Clouds
10:15 PM 69.8 °F - 69.8 °F 100% 29.96 in 10.0 mi SE 5.8 mph - N/A   Scattered Clouds
10:35 PM 69.8 °F - 69.8 °F 100% 29.96 in 10.0 mi SSE 5.8 mph - N/A   Mostly Cloudy
10:55 PM 69.4 °F - 69.4 °F 100% 29.97 in 10.0 mi SE 5.8 mph - N/A   Mostly Cloudy
11:15 PM 69.4 °F - 69.4 °F 100% 29.97 in 7.0 mi ESE 5.8 mph - N/A   Scattered Clouds
11:35 PM 68.9 °F - 68.9 °F 100% 29.97 in 7.0 mi SE 5.8 mph - N/A   Scattered Clouds
11:55 PM 68.9 °F - 68.9 °F 100% 29.97 in 7.0 mi SE 4.6 mph - N/A   Scattered Clouds